Location: Cicognara
(44.9500°N, 10.4667°E)
Time: 23:34:01
(UTC+00:00)

Lacrosse 5 rocket - Pass Details

Date: 20 June 2021
Orbit: 459 x 634 km, 57.0° (Epoch: 23 July)

Event Time Altitude Azimuth Distance (km) Brightness Sun altitude
Rises 22:03:46 0° 279° (W) 2,512 5.1 -19.4°
Reaches altitude 10° 22:06:32 10° 301° (WNW) 1,620 4.4 -19.6°
Maximum altitude 22:08:55 17° 342° (NNW) 1,264 4.2 -19.7°
Drops below altitude 10° 22:11:18 10° 24° (NNE) 1,610 4.4 -19.8°
Sets 22:14:03 0° 46° (NE) 2,489 5.0 -20.0°
